Location: Bullenkuhlen
(53.7689°N, 9.7495°E)
Time: 13:35:27
(UTC+00:00)

Terra - Pass Details

Date: 09 April 2020
Orbit: 701 x 703 km, 98.2° (Epoch: 03 June)

Event Time Altitude Azimuth Distance (km) Brightness Sun altitude
Exits shadow 22:08:19 28° 252° (WSW) 1,324 3.2 -26.3°
Maximum altitude 22:08:59 29° 266° (W) 1,295 3.3 -26.3°
Drops below altitude 10° 22:13:08 10° 327° (NNW) 2,185 5.3 -26.5°
Sets 22:15:41 0° 338° (NNW) 3,109 6.5 -26.6°
